Regional Weather Roundup
Issued by NWS Northern Indiana

Home | Current Version | Previous Version | Text Only | Print | Product List | Glossary On
Versions: 1 2 3 4 5 6 7 8 9 10 11 12 13 14 15 16 17 18 19 20 21 22 23 24 25 26 27 28 29 30 31 32 33 34 35 36 37 38 39 40 41 42 43 44 45 46 47 48 49 50
000
ASUS43 KIWX 021810
RWRIWX

KIWX WEATHER ROUNDUP
NATIONAL WEATHER SERVICE NORTHERN INDIANA
100 PM EST FRI DEC 02 2016

NOTE: "FAIR" INDICATES FEW OR NO CLOUDS BELOW 12,000 FEET WITH NO
SIGNIFICANT WEATHER AND/OR OBSTRUCTIONS TO VISIBILITY.

* THESE STATIONS ARE NOT UNDER NWS QUALITY CONTROL. THEY ALSO MAY NOT
  REPORT WEATHER SUCH AS PRECIPITATION OR FOG.

INZ001>027-021900-
NORTHERN INDIANA

CITY           SKY/WX    TMP DP  RH WIND       PRES   REMARKS
GARY*          CLOUDY    41  30  65 W12G25    30.18R
VALPARAISO     CLOUDY    40  31  70 W15       30.17R
6HR MIN TEMP:  37; 6HR MAX TEMP:  40;

MICHIGAN CITY* CLOUDY    37  30  75 NW8G18    30.15S
LAPORTE*       CLOUDY    40  37  89 NW8       30.15S
6HR MIN TEMP:  38; 6HR MAX TEMP:  40;

KNOX*          CLOUDY    37  16  41 W14       30.15S
SOUTH BEND     CLOUDY    37  34  89 NW13      30.14S
6HR MIN TEMP:  35; 6HR MAX TEMP:  37; 6HR PCP:  0.01;

ELKHART*       PTSUNNY   37  34  87 W9        30.13R
GOSHEN         CLOUDY    37  32  82 W10       30.13R
6HR MIN TEMP:  36; 6HR MAX TEMP:  38; 6HR PCP:  0.01;

MONTICELLO*    DRIZZLE   38  31  74 W9        30.18S
6HR MIN TEMP:  35; 6HR MAX TEMP:  39;

LOGANSPORT*    CLOUDY    37  32  81 W7        30.19R
ROCHESTER*     CLOUDY    41  34  75 W13       30.16S
WARSAW*        CLOUDY    37  30  75 W10       30.14S
ANGOLA*        CLOUDY    37  34  87 W7        30.10R
FORT WAYNE     CLOUDY    39  32  76 W16       30.14S
6HR MIN TEMP:  35; 6HR MAX TEMP:  39; 6HR PCP: TRACE;

HUNTINGTON*    CLOUDY    38  32  79 W9G17     30.15S
6HR MIN TEMP:  34; 6HR MAX TEMP:  38;

PERU/GRISSOM   CLOUDY    39  32  75 W12       30.16R
6HR MIN TEMP:  35; 6HR MAX TEMP:  39; 6HR PCP: TRACE;

MARION*        CLOUDY    38  32  79 W16       30.18R
6HR MIN TEMP:  25; 6HR MAX TEMP:  89;


$$
INZ028>050-021900-
CENTRAL INDIANA

CITY           SKY/WX    TMP DP  RH WIND       PRES   REMARKS
LAFAYETTE      CLOUDY    39  33  79 W10       30.20S
6HR MIN TEMP:  36; 6HR MAX TEMP:  39;

KOKOMO*        CLOUDY    39  32  76 W13       30.18S
6HR MIN TEMP:  35; 6HR MAX TEMP:  39; 6HR PCP: TRACE;

MUNCIE*        CLOUDY    39  31  72 NW12      30.18R
6HR MIN TEMP:  36; 6HR MAX TEMP:  39;

INDIANAPOLIS   CLOUDY    39  31  72 W8        30.20F
6HR MIN TEMP:  36; 6HR MAX TEMP:  39;


$$
MIZ043>046-050>051-056>058-064>065-071>073-077>080-021900-
SOUTHWEST LOWER MICHIGAN

CITY           SKY/WX    TMP DP  RH WIND       PRES   REMARKS
BATTLE CREEK   CLOUDY    37  30  75 NW10      30.10R
6HR MIN TEMP:  35; 6HR MAX TEMP:  39; 6HR PCP:  0.01;

BENTON HARBOR  CLOUDY    39  27  62 NW10      30.15R
6HR MIN TEMP:  38; 6HR MAX TEMP:  40; 6HR PCP: TRACE;

COLDWATER*     CLOUDY    39  31  72 NW15      30.09S
6HR MIN TEMP:  36; 6HR MAX TEMP:  39;

HILLSDALE*     CLOUDY    37  30  75 W16G22    30.06S
HOLLAND        CLOUDY    38  29  70 NW9       30.12R
6HR MIN TEMP:  38; 6HR MAX TEMP:  39;

GRAND RAPIDS   CLOUDY    36  26  67 NW12      30.11R
6HR MIN TEMP:  36; 6HR MAX TEMP:  38;

KALAMAZOO      CLOUDY    38  28  67 NW13      30.11S
6HR MIN TEMP:  36; 6HR MAX TEMP:  39; 6HR PCP:  0.02;

STURGIS*       CLOUDY    38  33  80 NW7       30.11R
6HR MIN TEMP:  36; 6HR MAX TEMP:  38;

THREE RIVERS*  CLOUDY    40  31  70 NW12      30.12R
6HR MIN TEMP:  37; 6HR MAX TEMP:  40;


$$
OHZ001>008-015>018-024>025-021900-
NORTHWEST OHIO

CITY           SKY/WX    TMP DP  RH WIND       PRES   REMARKS
WAUSEON*       DRIZZLE   37  34  87 W15G25    30.08S
DEFIANCE       CLOUDY    41  31  67 W10G17    30.11S
6HR MIN TEMP:  37; 6HR MAX TEMP:  42; 6HR PCP: TRACE;

FINDLAY        CLOUDY    41  32  70 W20G25    30.09S
6HR MIN TEMP:  37; 6HR MAX TEMP:  41; 6HR PCP: TRACE;

TOLEDO EXPRESS CLOUDY    40  33  76 W14       30.07F
6HR MIN TEMP:  35; 6HR MAX TEMP:  40;

TOLEDO METCALF CLOUDY    41  33  73 W14       30.08S
6HR MIN TEMP:  36; 6HR MAX TEMP:  42;

LIMA           CLOUDY    38  33  82 W15       30.12S
6HR MIN TEMP:  35; 6HR MAX TEMP:  38; 6HR PCP: TRACE;


$$
AND FOR LAKE MICHIGAN COASTAL AND OPEN LAKE BUOY OBSERVATIONS

STATION/POSITION TEMP    WIND        PRES    VSBY  WAVE
                 AIR SEA DIR/SP/G                  HT/PER
                 (F)     (DEG/KT/KT) (MB)    (MI)  (FT/S)
CALUMET HARBOR    39     270/  4/  8 1020.9S
MICHIGAN CITY     39     280/ 16/ 17   N/A
BURNS HARBOR      40     280/ 16/ 18 1021.3S
SAINT JOSEPH      40     290/ 15/ 18 1021.0
SOUTH LAKE BUOY   37 49  320/ 16/ 19 1020.7F         3/ 5

$$
&&




USA.gov is the U.S. government's official web portal to all federal, state and local government web resources and services.